Weather History for Yuma MCAS, AZ

Change the Weather History Date:

Saturday, May 9, 2009

  Actual Average Record
Temperature  
Mean Temperature 88 °F 80 °F  
Max Temperature 103 °F 93 °F 110 °F (1934)
Min Temperature 72 °F 66 °F 45 °F (1930)
Degree Days  
Heating Degree Days 0 0  
Month to date heating degree days 0 0  
Since 1 July heating degree days 0 686  
Cooling Degree Days 23 15  
Month to date cooling degree days 169 121  
Year to date cooling degree days 0 527  
Growing Degree Days 37 (Base 50)    
Moisture  
Dew Point 37 °F    
Average Humidity 21    
Maximum Humidity 35    
Minimum Humidity 7    
Precipitation  
Precipitation 0.00 in 0.00 in 0.08 in (1912)
Month to date precipitation 0.00 0.02  
Year to date precipitation 0.62 1.26  
Sea Level Pressure  
Sea Level Pressure 29.71 in    
Wind  
Wind Speed 8 mph (South)    
Max Wind Speed 17 mph    
Max Gust Speed 22 mph    
Visibility 10 miles    
Events      
T = Trace of Precipitation, MM = Missing Value Source: NWS Daily Summary

Daily Weather History Graph

Daily Weather History Graph

Search for Another Location

Airport:

Trip Planner

Search our weather history database for the weather conditions in past years. The results will help you decide how hot, cold, wet, or windy it might be!

Date:

Astronomy

May. 09, 2009 Rise Set
Actual Time 5:44 AM MST 7:26 PM MST
Civil Twilight 5:17 AM MST 7:52 PM MST
Nautical Twilight 4:45 AM MST 8:25 PM MST
Astronomical Twilight 4:11 AM MST 8:59 PM MST
Moon 8:25 PM MST (5/9) 5:42 AM MST (5/9)
Length of Visible Light 14h 35m
Length of Day
13h 42m
Full, 100% of the Moon is Illuminated
May 9
Full
May 17
Last Quarter
May 24
New
May 30
First Quarter
Jun 7
Full

Hourly Weather History & Observations

Time (MST) Temp. Dew Point Humidity Pressure Visibility Wind Dir Wind Speed Gust Speed Precip Events Conditions
12:51 AM 79.0 °F 36.0 °F 21% 29.67 in 10.0 mi SSE 3.5 mph - N/A   Clear
1:51 AM 75.9 °F 41.0 °F 29% 29.68 in 10.0 mi WSW 3.5 mph - N/A   Clear
2:51 AM 78.1 °F 39.0 °F 25% 29.67 in 10.0 mi SSW 4.6 mph - N/A   Clear
3:51 AM 72.0 °F 43.0 °F 35% 29.68 in 10.0 mi SSE 3.5 mph - N/A   Clear
4:51 AM 75.9 °F 41.0 °F 29% 29.69 in 10.0 mi SE 6.9 mph - N/A   Clear
5:51 AM 73.9 °F 43.0 °F 33% 29.71 in 10.0 mi SE 3.5 mph - N/A   Clear
6:51 AM 77.0 °F 45.0 °F 32% 29.73 in 10.0 mi Calm Calm - N/A   Clear
7:51 AM 79.0 °F 43.0 °F 28% 29.75 in 10.0 mi ENE 3.5 mph - N/A   Clear
8:51 AM 88.0 °F 36.0 °F 16% 29.75 in 10.0 mi SSE 12.7 mph - N/A   Clear
9:51 AM 91.9 °F 30.9 °F 11% 29.76 in 10.0 mi South 13.8 mph - N/A   Clear
10:51 AM 93.9 °F 30.0 °F 10% 29.76 in 10.0 mi South 11.5 mph - N/A   Clear
11:51 AM 96.1 °F 30.9 °F 10% 29.76 in 10.0 mi SSW 8.1 mph - N/A   Clear
12:51 PM 100.0 °F 28.9 °F 8% 29.74 in 10.0 mi South 12.7 mph 21.9 mph N/A   Clear
1:51 PM 100.9 °F 30.9 °F 9% 29.72 in 10.0 mi SSW 11.5 mph - N/A   Clear
2:51 PM 100.9 °F 28.9 °F 8% 29.70 in 10.0 mi South 12.7 mph - N/A   Clear
3:51 PM 102.0 °F 28.9 °F 8% 29.68 in 10.0 mi SSW 12.7 mph - N/A   Clear
4:51 PM 100.0 °F 30.0 °F 9% 29.67 in 10.0 mi South 8.1 mph 17.3 mph N/A   Clear
5:51 PM 99.0 °F 37.0 °F 12% 29.65 in 10.0 mi SSE 12.7 mph - N/A   Clear
6:51 PM 95.0 °F 37.9 °F 14% 29.65 in 10.0 mi South 9.2 mph - N/A   Clear
7:51 PM 90.0 °F 39.0 °F 17% 29.67 in 10.0 mi South 8.1 mph - N/A   Clear
8:51 PM 84.9 °F 36.0 °F 17% 29.69 in 10.0 mi South 9.2 mph - N/A   Clear
9:51 PM 82.9 °F 41.0 °F 23% 29.71 in 10.0 mi South 6.9 mph - N/A   Clear
10:51 PM 80.1 °F 43.0 °F 27% 29.72 in 10.0 mi SSW 4.6 mph - N/A   Clear
11:51 PM 78.1 °F 42.1 °F 28% 29.74 in 10.0 mi West 8.1 mph - N/A   Clear